Wind_Gust
26 27 26 26 24 24 23 23 23 22 20 20 19 18 18 17 17 16 15 14 13 13 12 11 10 9 9 8 7 6 7 14 13 13 13 14 10 8 9 8 7 8 8 12 11 15 13 12 14 13 14 15 13 12 12 12 11 14 13 14 15 13 15 15 14 16 16 19 17 13 12 16 16 16 19 18 19 21 20 22 20 18 19 18 18 15 14 14
25 26 26 27 24 25 24 23 24 22 21 20 20 20 18 17 17 16 15 14 13 12 11 9 9 7 8 6 6 5 13 14 10 8 16 9 9 9 8 8 7 9 10 12 10 10 15 12 12 12 14 12 9 13 14 13 15 15 12 12 17 15 18 14 17 15 14 17 16 15 12 14 17 14 16 17 18 20 20 19 17 19 18 17 16 16 16 16
26 26 26 25 24 24 24 25 24 23 21 20 20 20 19 18 17 16 15 14 13 11 10 9 7 6 6 5 5 6 12 14 13 17 14 8 8 8 8 8 7 9 15 9 9 11 13 12 11 13 13 15 17 13 10 16 14 13 13 19 19 16 18 16 14 15 16 18 18 16 14 13 16 14 17 19 22 20 20 21 18 18 18 17 16 16 16 17
26 25 26 24 25 26 27 27 26 24 23 22 20 21 20 19 17 16 15 15 13 11 9 8 7 5 4 5 6 12 14 18 16 14 14 8 10 9 8 10 10 10 12 13 11 15 12 14 16 14 17 17 15 10 15 15 13 14 14 19 21 17 19 17 16 17 16 14 17 16 16 17 14 14 15 19 23 20 18 15 15 18 19 18 16 15 14 16
26 25 25 26 26 27 28 27 27 25 24 22 21 20 20 19 16 14 15 15 13 11 9 7 6 4 4 5 7 14 13 14 17 10 14 10 11 9 9 11 10 10 10 14 15 13 13 12 13 15 13 18 16 17 19 18 20 19 23 21 18 17 21 17 17 15 15 14 16 16 16 19 17 17 14 11 18 21 18 15 15 17 18 19 17 15 15 15
26 25 26 26 27 27 28 27 27 26 24 23 21 21 21 20 17 15 15 16 13 10 9 6 5 5 5 7 15 13 15 24 15 11 8 9 11 9 8 10 8 10 12 12 11 10 10 12 11 12 16 16 17 19 18 17 13 22 20 18 17 18 20 17 16 14 15 17 16 17 18 18 16 18 15 17 21 19 16 15 15 16 16 16 15 15 15 14
28 25 26 27 27 27 27 28 27 27 25 24 22 21 21 19 18 15 15 16 13 10 7 6 5 5 7 8 13 14 17 21 9 14 13 10 10 10 9 7 8 11 13 16 11 13 14 18 18 16 19 22 20 22 17 17 17 19 25 18 19 18 19 16 16 12 14 15 18 18 17 20 19 19 16 20 18 16 14 14 15 15 15 14 14 13 14 13
29 27 26 27 27 27 27 28 28 26 25 24 23 21 20 19 17 15 14 15 13 10 7 5 5 6 8 12 14 14 17 21 15 10 11 13 12 12 12 12 9 10 11 15 19 19 17 18 18 16 19 18 18 22 19 21 18 21 23 18 20 17 17 15 15 16 17 17 17 17 17 16 16 19 17 18 15 14 14 14 14 14 14 13 14 14 13 13
30 28 27 27 27 27 28 28 29 27 26 24 23 22 21 18 17 14 14 14 12 10 7 5 6 4 7 13 14 14 21 16 12 10 14 13 10 11 14 11 9 12 14 13 13 15 12 13 12 12 23 21 17 20 17 15 23 18 20 18 19 18 17 16 17 15 15 17 16 20 20 19 19 18 18 15 13 14 14 14 14 14 14 13 13 12 12 12
31 30 29 29 29 28 28 29 29 27 27 25 24 22 20 17 15 13 12 13 11 10 6 4 7 8 10 15 13 19 15 10 8 13 10 12 11 12 14 13 12 15 16 14 11 10 12 16 20 22 23 20 12 17 15 15 22 17 20 19 19 18 16 14 16 15 14 16 13 20 17 18 13 12 16 12 13 13 13 14 13 13 13 12 12 12 10 12
32 32 32 31 32 30 29 29 28 27 26 26 24 22 19 15 13 11 10 10 10 8 5 5 6 10 13 13 16 21 9 8 10 12 11 11 12 12 14 10 8 11 16 13 14 15 21 23 20 19 16 23 20 21 19 23 20 20 21 20 18 17 17 16 15 15 14 16 11 14 16 12 11 12 17 16 13 13 13 13 13 12 14 14 12 11 10 10
31 33 33 32 32 32 32 31 28 27 26 25 24 22 18 14 11 9 9 7 6 5 3 4 6 15 16 13 20 18 9 9 10 11 11 10 16 14 10 8 8 14 14 16 18 18 20 19 10 10 19 17 30 23 22 17 19 20 19 23 20 17 20 14 14 12 10 17 10 10 13 14 14 16 15 14 13 13 11 12 12 12 13 13 13 12 12 11
31 33 34 33 34 33 34 33 31 29 27 25 23 21 18 13 9 7 6 5 5 4 6 6 9 14 15 11 19 13 11 11 12 10 14 18 20 17 15 13 12 11 15 20 19 16 12 9 20 27 17 16 14 14 20 15 18 17 14 21 20 19 20 14 11 11 12 17 10 12 17 17 15 15 14 13 13 12 13 13 13 13 13 13 12 12 11 11
30 32 34 34 34 34 34 35 34 31 29 26 24 20 15 10 6 4 6 7 6 7 7 7 14 14 14 20 14 11 7 12 11 11 10 9 17 18 19 19 20 19 20 21 16 14 17 19 25 23 15 16 25 23 21 19 13 15 14 13 13 15 20 13 10 12 13 15 13 12 17 18 15 13 13 13 13 13 13 13 13 12 12 12 12 12 12 11
30 31 33 34 34 35 35 35 34 33 30 27 24 19 13 10 8 6 6 7 8 7 7 8 15 14 11 18 10 12 11 11 12 10 9 11 17 17 19 20 21 20 19 18 20 16 18 19 19 18 22 20 26 20 19 16 13 12 16 16 12 16 18 14 11 12 10 15 14 16 13 16 17 18 15 15 14 14 13 13 13 13 13 12 12 12 12 11
31 32 32 33 33 35 35 35 35 33 30 28 24 17 10 9 10 10 7 7 9 8 12 12 10 15 12 19 14 11 11 12 15 9 9 9 14 17 17 21 20 20 20 17 16 17 16 21 21 21 25 17 15 14 17 17 15 13 11 13 16 14 18 17 14 14 10 9 11 12 16 13 16 16 17 16 16 15 14 13 13 12 13 13 13 11 11 12
31 31 32 33 34 34 35 35 36 33 29 28 23 10 6 8 9 10 9 9 10 10 12 14 11 11 11 16 11 11 16 13 7 10 10 13 22 19 18 18 19 19 19 17 15 16 14 17 16 18 12 12 9 11 12 13 14 15 10 17 12 14 14 18 15 14 13 11 11 12 14 13 15 16 17 16 16 16 17 15 14 15 14 14 13 13 13 13
30 31 32 32 33 33 35 37 37 34 29 26 17 8 10 7 11 11 7 9 10 11 11 11 12 13 19 12 10 15 11 11 10 13 12 16 18 17 12 15 16 17 17 17 13 9 12 14 19 13 14 13 14 13 12 17 15 15 14 14 17 14 13 15 12 16 15 13 13 9 13 11 13 13 17 18 17 17 18 16 14 15 15 15 14 14 13 14
30 31 31 32 33 33 35 35 38 34 28 27 11 10 9 7 13 13 12 10 14 15 15 15 13 18 20 13 9 10 9 10 11 13 17 16 13 15 14 11 16 17 14 12 17 11 12 15 16 15 14 14 15 16 18 15 12 13 12 16 13 13 16 17 17 13 15 13 14 12 11 10 11 13 16 17 18 19 18 15 14 15 14 14 15 15 14 14
30 30 32 32 32 33 34 35 35 34 27 20 12 11 13 19 21 15 17 12 12 14 13 14 10 10 14 11 10 12 10 11 15 11 14 12 18 16 15 13 12 13 14 12 15 9 11 13 15 19 16 16 13 13 13 10 12 14 11 12 16 16 17 14 11 12 14 12 12 11 13 14 13 12 15 18 17 17 18 17 17 16 15 16 15 15 14 13
30 30 32 33 33 32 32 34 33 31 29 19 17 18 15 13 14 17 16 18 11 7 11 9 11 12 17 16 11 10 10 15 12 15 14 14 12 16 15 14 13 12 15 11 11 12 16 13 17 15 13 10 11 10 11 11 11 11 12 10 13 10 18 12 12 11 14 13 12 10 12 14 15 12 13 15 18 20 21 20 19 17 15 16 15 15 14 12
29 31 32 34 34 31 32 32 30 27 27 16 22 22 16 15 13 13 13 15 13 10 8 10 7 14 10 13 9 9 11 11 15 14 12 15 15 20 16 13 8 14 12 11 15 16 15 21 16 13 12 13 12 11 10 10 11 10 10 12 11 16 15 14 11 10 12 13 9 10 14 13 11 11 13 17 21 20 19 19 18 16 16 17 16 15 13 13
29 31 31 34 33 32 34 29 28 20 19 21 22 17 16 12 12 9 13 15 15 10 9 8 11 10 11 9 8 11 13 9 12 17 19 16 15 16 10 13 11 12 12 12 11 9 16 18 14 11 12 13 12 11 10 12 11 9 11 10 17 14 11 15 14 11 12 14 14 14 17 14 11 12 13 16 20 19 15 15 17 14 17 17 18 15 15 15
29 30 32 34 35 35 34 31 25 14 16 15 19 17 11 13 13 10 13 12 12 14 9 8 10 10 9 10 12 13 14 12 12 15 16 18 14 10 14 10 10 10 17 14 15 19 19 16 11 12 9 11 10 11 12 11 14 12 12 12 12 11 13 15 15 11 11 14 13 17 18 16 11 14 15 16 16 16 16 16 17 18 18 16 12 13 14 17
29 30 31 34 33 35 38 25 12 16 14 9 15 12 11 12 13 12 14 11 15 15 9 9 9 10 11 9 10 13 8 7 11 10 14 16 15 15 12 9 16 16 10 10 10 15 16 11 11 10 9 9 10 12 12 14 12 13 13 12 13 8 10 11 13 13 16 15 11 14 15 21 14 11 13 15 16 18 17 18 19 18 17 17 17 16 15 14
28 29 31 32 33 35 35 10 13 19 16 10 13 12 13 13 10 12 15 15 17 19 12 16 9 14 11 12 10 8 12 11 12 9 11 11 10 14 14 13 17 13 10 11 15 18 15 13 11 10 10 10 10 12 12 13 12 11 17 10 9 11 12 13 13 13 11 14 15 11 19 20 13 15 13 11 12 14 16 18 19 18 18 18 18 16 17 17
27 28 25 26 25 31 20 11 17 19 13 13 10 13 15 13 7 13 14 15 15 15 15 17 13 16 12 10 8 9 15 16 12 11 12 11 13 8 17 15 13 11 9 9 20 17 11 13 11 10 11 12 11 13 14 13 16 20 11 9 10 12 13 12 11 10 14 10 12 10 15 14 19 19 11 10 12 13 15 18 19 19 17 18 17 16 15 17
28 26 25 26 23 17 14 20 19 13 14 11 13 16 16 10 12 10 17 11 21 12 12 14 10 12 11 8 10 16 16 10 15 12 8 12 12 14 17 11 15 12 13 18 15 15 10 11 11 11 10 11 17 13 10 11 16 18 9 9 9 10 10 12 10 8 11 14 17 12 10 15 17 18 11 10 12 12 13 15 17 19 19 18 18 17 16 17
23 21 25 22 25 20 15 14 15 14 12 13 14 17 13 9 14 16 13 14 14 18 15 11 12 11 11 9 13 9 10 7 13 13 10 10 11 13 13 11 9 13 10 15 16 16 11 9 10 11 13 16 11 10 9 10 13 12 12 14 13 13 11 10 9 11 11 16 18 15 17 16 20 13 17 13 10 11 14 15 15 14 18 18 18 16 15 16
22 21 22 22 21 12 11 11 17 11 12 13 16 17 9 13 13 15 12 10 14 19 13 13 14 10 9 13 11 9 13 11 8 11 12 11 11 12 12 10 11 12 12 12 12 16 13 8 9 12 12 12 12 12 8 8 13 17 14 15 15 13 11 12 12 10 14 17 18 15 15 19 16 18 15 12 18 14 12 13 12 10 12 16 15 17 18 18
20 22 20 17 17 16 16 15 14 9 10 14 17 13 12 17 14 13 8 13 13 17 11 10 12 10 11 13 16 14 10 8 10 11 15 13 15 13 11 15 14 13 11 13 12 13 13 13 14 12 8 13 11 15 11 11 14 13 11 12 12 14 13 15 13 15 15 19 17 14 13 12 16 22 16 15 11 10 11 14 11 11 14 15 17 19 19 18
21 23 23 21 20 16 15 13 11 11 14 16 15 12 15 15 13 16 8 13 20 14 13 14 11 9 9 7 13 9 9 12 9 12 13 11 11 15 16 11 11 10 13 10 14 12 16 13 14 14 11 11 12 12 17 13 13 15 14 14 14 16 14 15 15 17 20 22 15 12 8 14 17 19 17 14 13 12 12 14 14 12 14 14 17 18 19 19
23 26 27 21 12 15 19 22 16 14 14 14 12 15 17 14 14 17 13 20 11 12 17 10 9 10 9 12 14 9 9 13 13 10 10 10 16 10 10 14 12 18 14 11 10 13 18 12 12 13 13 13 15 17 15 15 13 13 17 17 17 17 17 15 18 16 18 17 14 12 10 16 18 21 17 17 14 11 11 13 13 12 13 15 17 18 19 19
26 26 26 9 14 18 15 12 13 12 13 9 14 16 16 10 15 11 10 17 12 9 8 8 9 9 12 19 12 9 18 11 10 11 12 10 14 12 15 11 12 11 12 8 10 10 11 15 16 10 12 13 13 13 17 17 12 18 13 16 15 20 20 14 20 18 17 19 16 10 16 20 21 20 17 15 13 13 13 12 11 11 13 13 17 18 19 19
31 27 17 14 14 17 18 15 10 10 11 13 17 20 13 17 9 17 16 15 13 10 10 9 11 15 15 14 9 9 13 12 9 10 13 13 11 11 10 12 13 14 9 15 14 11 12 15 15 12 12 10 10 9 11 12 14 13 10 16 13 18 14 18 18 15 14 15 14 16 17 15 24 17 15 13 12 13 10 11 12 14 16 17 17 19 19 20
22 18 9 10 9 9 9 11 10 12 12 13 18 16 19 14 13 14 13 10 10 10 11 13 11 18 15 17 10 10 9 12 12 13 11 13 9 12 9 9 14 17 15 9 11 9 13 11 12 11 8 8 11 10 9 14 16 15 16 18 17 12 16 12 10 8 8 13 19 14 18 18 20 16 18 16 14 15 12 13 14 15 16 15 16 18 19 20
18 20 15 11 9 9 8 10 13 13 15 15 18 16 12 9 12 11 10 8 10 9 12 18 20 17 19 21 17 16 11 13 12 13 15 11 13 10 9 9 9 14 15 18 11 11 16 14 11 11 13 11 8 10 13 11 15 20 15 15 12 12 14 14 13 9 12 17 14 14 19 24 20 23 21 20 17 16 15 14 13 14 16 17 16 17 19 19
20 14 11 11 11 9 9 10 11 13 14 15 17 8 9 10 9 10 9 8 11 10 12 18 12 11 14 14 19 16 14 18 16 14 11 11 11 10 8 9 11 12 10 11 14 9 14 14 17 10 10 13 10 12 15 13 11 17 16 14 18 11 13 16 12 14 13 14 15 18 15 20 23 24 20 20 20 16 15 13 14 15 16 17 17 17 16 16
13 13 12 12 13 9 9 10 13 14 15 19 18 13 12 9 9 9 8 9 9 9 16 10 9 12 10 19 11 10 12 20 12 13 17 15 18 11 10 12 11 9 9 13 16 9 11 13 16 12 11 12 12 16 9 12 14 13 13 13 11 14 15 13 17 12 17 11 11 17 17 22 23 24 19 20 18 15 14 12 13 11 13 15 18 20 19 19
14 15 10 10 12 8 11 10 13 13 17 17 16 16 12 10 10 10 10 11 9 13 9 8 9 9 14 8 10 12 11 11 13 10 15 11 12 11 8 7 12 9 7 11 13 11 11 10 8 17 9 13 13 15 10 13 8 13 13 10 11 11 11 14 11 17 18 12 13 14 15 18 21 19 18 18 17 14 12 13 12 11 11 12 14 16 17 18
10 14 11 10 12 8 9 14 16 16 18 10 11 9 10 9 9 10 8 9 12 8 11 9 10 15 12 16 17 10 13 12 13 14 12 12 14 11 10 11 10 9 10 11 14 14 10 16 9 13 17 17 12 12 12 11 12 12 12 9 14 11 10 13 11 11 13 16 15 14 17 18 23 13 17 17 14 14 13 11 13 11 11 11 13 14 15 17
13 15 12 9 11 8 13 15 12 8 13 13 12 13 12 7 13 9 10 11 12 11 9 11 10 11 13 13 9 13 13 14 12 11 11 12 12 11 11 7 11 12 15 12 11 13 12 10 13 11 10 10 12 11 9 10 11 11 13 9 10 9 13 12 13 12 14 12 13 12 12 17 16 15 14 16 15 16 15 13 14 12 10 9 12 13 14 15
14 11 11 7 9 10 14 15 7 11 15 10 8 11 9 11 9 8 11 12 14 11 11 14 10 13 12 11 11 12 12 13 11 11 11 10 12 11 10 12 9 12 15 8 8 11 9 16 15 13 10 13 12 11 10 9 11 14 12 10 11 10 12 14 15 14 16 13 13 12 10 21 17 12 11 12 13 13 14 13 15 13 9 8 11 13 15 15
11 13 13 11 8 11 15 15 12 14 13 10 10 9 9 9 10 11 17 11 16 13 13 13 10 13 8 9 10 14 13 14 10 11 14 9 13 11 7 13 10 12 13 12 12 17 15 13 18 11 12 15 15 14 14 11 14 14 9 11 10 10 9 10 12 9 13 11 14 15 15 15 15 14 11 12 16 16 15 14 10 14 9 8 11 12 14 15
13 12 14 16 13 12 18 13 14 11 12 11 12 13 14 13 13 15 12 13 11 11 10 15 11 9 12 9 11 9 10 12 10 12 10 10 13 12 9 11 9 8 8 10 6 10 16 9 17 14 11 10 9 12 12 13 15 11 8 11 9 10 15 13 9 11 13 11 13 16 17 19 19 16 17 17 19 21 17 13 11 12 10 9 11 13 14 16
13 14 14 16 15 15 17 9 14 15 12 11 9 11 9 13 12 10 11 17 13 11 14 11 9 11 11 13 15 16 15 11 13 12 18 16 15 14 9 10 9 11 11 13 10 12 13 8 16 17 19 17 17 15 12 10 14 14 13 12 12 9 9 11 12 15 13 14 18 16 18 20 19 18 17 18 19 19 20 17 15 13 11 9 10 13 15 16
12 15 10 13 15 17 16 15 17 16 16 12 12 11 14 16 10 13 12 17 14 14 13 13 12 16 14 15 16 16 13 13 12 11 14 12 11 11 10 8 9 15 14 9 9 13 11 15 11 10 14 13 13 10 10 9 12 10 11 12 10 11 10 11 11 16 15 18 18 16 12 19 19 18 17 17 17 19 19 17 16 14 12 11 11 13 11 14
16 12 10 11 12 12 16 14 18 17 11 13 11 9 10 13 15 15 13 16 8 13 15 14 15 18 14 18 15 16 16 17 15 18 13 11 11 15 15 11 12 14 14 10 11 12 13 14 10 10 9 10 10 9 8 9 10 8 9 8 11 12 12 12 12 12 12 14 20 16 14 16 18 18 19 16 15 16 18 19 16 14 11 9 12 14 16 16
12 12 10 8 13 8 10 11 15 17 16 16 12 12 12 13 13 15 10 14 18 14 19 11 18 20 19 15 16 17 16 16 14 13 14 13 11 9 15 15 12 12 13 10 11 8 14 12 8 9 9 9 9 8 9 11 10 12 12 13 11 12 14 13 15 12 15 16 15 14 13 17 20 19 18 16 13 14 16 14 13 11 11 9 12 13 15 17
12 13 9 11 14 10 8 11 13 16 18 16 14 15 20 16 15 13 14 13 15 17 13 20 16 19 18 17 19 20 15 16 11 15 13 10 11 13 9 9 10 10 12 8 7 9 12 8 8 10 15 14 12 10 10 10 11 15 13 14 13 12 14 13 13 9 9 13 14 12 14 19 15 12 13 13 11 13 13 12 14 11 10 10 12 13 15 17
8 9 10 13 16 16 12 12 15 17 16 17 21 13 13 17 16 14 13 13 15 13 16 18 17 13 11 14 17 20 15 15 13 11 14 15 15 12 16 11 10 8 11 9 9 10 13 7 10 11 13 15 14 14 12 11 12 15 17 17 17 15 17 13 10 10 11 12 10 11 17 16 17 13 16 12 9 12 14 14 14 14 12 10 12 13 15 17
9 7 10 12 14 12 18 14 13 15 17 18 19 16 18 15 14 11 15 15 16 15 12 10 10 15 12 12 17 19 12 12 10 10 14 13 11 11 9 10 11 7 7 8 7 10 8 12 13 14 15 15 11 10 12 12 17 20 21 21 20 16 12 9 12 10 12 9 13 10 14 18 17 15 17 18 15 14 15 16 16 15 14 13 13 15 15 15
Wind_Speed
20 20 19 19 20 19 19 19 18 18 16 16 15 15 14 12 11 10 9 9 8 8 7 6 4 3 3 3 1 5 5 6 5 6 5 5 2 3 5 4 4 5 6 5 3 7 5 3 3 4 5 5 3 1 3 2 2 4 4 3 3 3 5 5 5 6 7 8 8 6 4 9 8 8 8 8 10 12 12 13 11 11 11 10 9 7 7 5
20 21 20 19 20 20 19 19 19 18 17 16 16 16 15 13 11 10 10 9 9 8 7 6 4 3 3 3 2 1 6 7 3 2 7 2 6 4 3 3 3 8 7 5 4 4 7 3 3 3 5 2 1 3 5 3 4 4 1 2 4 5 7 4 7 7 4 8 8 8 4 6 9 7 5 6 10 10 11 10 10 11 10 10 9 8 9 8
21 21 21 20 20 20 20 19 19 18 17 17 16 17 16 14 11 10 9 9 8 8 7 5 4 2 4 3 3 4 5 6 6 8 6 4 7 5 4 4 6 7 7 2 1 3 4 5 3 3 1 2 1 4 1 5 4 3 3 4 7 7 9 8 6 7 8 8 8 8 7 6 8 5 7 9 11 11 10 8 10 10 10 10 9 9 8 8
20 20 20 19 19 20 20 21 20 18 18 17 17 17 16 15 11 10 9 9 7 8 6 6 3 2 2 3 3 5 6 9 6 6 7 6 5 5 5 4 5 6 2 2 2 4 2 3 3 2 4 2 5 2 2 4 3 3 1 6 8 8 8 8 8 8 7 6 8 8 8 8 6 6 6 11 11 10 8 7 8 10 11 10 9 8 7 7
21 20 19 19 19 20 20 21 20 18 19 18 18 17 16 15 12 9 9 8 7 7 7 5 4 2 2 3 5 5 5 4 7 3 7 6 4 4 4 5 7 3 2 5 4 3 1 3 3 3 2 5 6 6 8 8 8 7 11 10 8 8 10 9 9 7 7 7 8 8 8 9 7 7 7 4 8 8 7 7 8 10 11 11 9 8 6 6
19 20 19 19 19 19 19 21 20 20 19 18 17 18 17 16 13 10 8 8 7 6 5 5 3 4 3 4 6 6 5 7 4 3 7 4 3 2 3 2 2 2 5 4 2 2 1 3 1 3 4 5 6 7 8 7 1 8 8 9 8 9 10 7 8 6 4 7 8 8 9 8 8 9 7 10 10 9 7 8 9 9 9 9 8 7 6 6
21 21 20 19 19 18 19 21 20 20 19 18 17 17 17 16 13 9 8 8 7 5 5 4 3 2 4 4 4 6 6 8 1 6 9 3 2 3 3 5 7 4 5 3 2 3 5 6 5 7 8 9 9 9 8 6 7 8 9 9 11 10 10 8 8 5 6 7 9 8 8 10 9 10 7 11 9 8 8 7 8 9 9 8 7 6 6 6
22 20 19 21 19 18 20 21 21 19 19 19 18 18 17 16 12 8 7 7 6 5 4 4 2 2 5 4 5 3 7 9 7 4 7 3 6 6 7 4 3 3 2 3 4 7 5 8 7 6 6 6 8 10 9 11 9 9 10 10 10 9 9 7 6 7 8 9 8 9 9 8 8 9 8 10 8 8 7 7 7 8 7 6 7 6 6 5
24 22 22 22 20 19 21 21 21 20 20 19 19 18 17 15 12 7 6 6 5 4 3 3 4 2 4 5 6 5 8 7 6 4 7 6 4 6 7 1 3 3 4 4 5 4 1 5 4 2 9 10 8 10 9 7 9 8 11 9 10 9 9 7 8 8 7 6 6 9 11 10 10 10 10 8 7 7 8 7 8 8 7 6 6 5 4 4
25 25 24 23 22 20 19 19 20 21 20 18 19 18 16 13 10 6 5 5 3 3 2 1 4 5 5 6 5 7 6 4 2 4 4 3 4 6 3 5 3 5 4 4 3 2 5 6 11 12 12 10 4 8 7 6 9 8 11 10 10 10 8 6 8 7 6 7 5 9 9 9 6 4 6 6 7 7 7 7 7 7 7 6 5 4 4 3
25 25 24 24 24 22 19 19 19 22 20 19 19 17 15 12 10 6 3 3 2 2 2 3 2 5 5 5 6 8 2 3 2 4 4 4 2 1 6 3 1 3 5 4 6 7 11 11 8 6 5 8 10 11 9 10 10 11 11 11 10 9 8 8 7 7 5 6 4 7 8 5 5 4 7 8 7 7 7 6 7 6 6 6 5 4 3 3
24 25 24 25 25 23 20 21 19 22 20 20 19 17 14 12 8 4 2 0 1 1 2 2 4 5 7 4 8 7 3 3 3 3 4 3 5 6 4 2 1 4 3 8 9 9 7 7 2 3 6 7 12 13 11 9 10 11 10 11 10 8 8 6 6 5 3 7 3 2 5 6 6 8 8 7 6 6 5 6 6 6 5 6 5 3 3 3
24 24 24 24 25 24 22 22 22 22 21 20 18 16 13 10 5 3 1 4 2 1 2 3 6 5 6 2 8 6 3 3 5 4 6 6 9 8 6 6 5 4 6 8 9 7 4 1 6 12 7 3 4 3 8 6 8 7 6 9 10 9 8 6 3 3 5 7 3 1 4 6 7 8 7 6 6 6 6 5 5 5 5 5 4 3 2 3
23 24 24 25 25 26 24 22 22 22 20 20 18 15 11 8 4 3 4 5 3 3 1 5 5 5 6 8 5 4 2 4 4 4 3 2 8 9 10 10 9 8 8 9 7 3 5 8 10 10 5 7 10 12 10 7 5 5 5 5 3 5 7 5 2 3 5 7 6 1 1 6 8 7 7 7 7 6 6 5 5 4 4 4 4 3 3 3
22 24 25 25 26 25 25 23 23 22 22 20 18 16 9 8 5 3 2 2 3 1 4 6 5 5 3 7 4 5 4 4 3 2 1 2 8 9 10 10 11 9 8 7 7 7 7 8 8 7 8 10 12 9 7 6 4 3 5 5 3 4 6 6 3 3 2 6 5 6 2 6 8 9 8 8 7 7 6 6 5 4 4 4 3 3 2 3
23 23 24 25 25 25 24 24 25 23 21 20 18 14 6 6 5 4 3 4 3 4 4 4 3 5 4 6 5 6 4 3 5 2 1 2 6 8 9 11 9 9 9 8 5 4 4 5 7 9 10 8 6 4 5 5 4 3 1 5 6 5 7 7 6 5 1 1 3 3 4 4 7 7 9 8 8 7 5 5 5 5 4 4 3 3 2 3
23 24 24 23 25 25 25 25 25 24 21 19 18 9 3 3 4 3 3 5 4 4 3 4 2 3 3 5 3 1 7 5 0 4 3 5 9 9 9 8 9 9 8 8 6 5 5 4 6 7 2 2 1 1 2 4 5 5 2 6 3 5 4 5 6 5 5 3 1 3 3 5 6 7 8 8 8 7 6 5 5 5 4 4 3 3 2 1
23 23 23 23 25 25 25 26 27 25 22 20 15 6 4 2 8 9 5 5 2 3 2 2 3 3 6 4 2 7 4 5 2 5 5 7 8 8 5 5 8 8 7 8 5 2 2 4 7 4 3 3 3 4 1 6 5 5 5 5 6 5 4 6 2 7 5 3 3 1 3 1 5 5 7 8 8 7 6 4 4 5 4 4 3 3 2 1
23 22 23 23 24 25 25 26 29 25 22 22 10 4 4 4 5 5 4 2 4 5 5 4 3 4 8 5 2 2 2 3 5 6 8 8 5 6 5 3 6 7 4 4 7 4 3 4 5 5 4 2 5 6 7 6 4 5 5 6 4 4 5 6 7 5 5 4 4 3 0 2 3 5 6 7 8 8 6 5 4 5 4 4 4 3 2 1
22 23 23 24 23 24 25 27 27 25 21 14 1 3 4 4 4 4 4 4 3 6 6 6 2 3 6 0 3 5 3 5 7 4 7 5 6 7 6 4 4 5 5 2 5 1 3 1 5 7 5 7 6 5 5 2 5 5 3 4 7 7 7 6 4 4 3 4 1 1 1 2 3 4 6 8 8 8 7 7 6 5 5 5 4 3 3 3
23 22 22 24 24 23 24 26 25 25 23 9 9 1 1 4 4 5 5 2 3 1 4 3 4 5 8 7 4 3 3 7 5 7 7 6 5 6 6 5 4 3 5 1 1 4 6 2 7 7 6 3 4 3 2 2 2 2 4 2 4 2 7 4 4 3 3 5 4 1 2 2 2 3 5 7 8 9 9 8 7 7 6 5 4 3 2 3
22 23 23 24 24 23 23 25 24 22 22 7 8 8 6 7 4 4 4 4 4 3 2 3 1 6 3 5 2 3 4 3 7 7 5 7 6 9 7 5 1 5 4 3 5 4 3 8 6 4 3 3 3 2 3 2 3 2 1 3 3 6 6 6 3 2 3 4 2 1 3 1 3 3 4 6 7 6 7 7 7 7 6 5 5 4 3 4
19 23 23 23 24 23 23 22 22 16 8 8 9 8 6 5 4 1 4 5 4 3 3 2 4 3 1 3 1 4 6 2 3 8 8 7 6 7 2 4 4 4 4 3 3 2 6 7 6 3 2 3 3 2 2 3 2 1 0 2 6 4 4 5 5 4 4 4 4 4 4 3 3 4 4 5 6 6 6 7 7 6 6 6 4 4 4 5
17 23 22 23 25 24 24 23 21 10 6 7 10 8 3 4 4 3 5 3 1 3 2 2 4 3 2 3 4 5 6 4 4 7 8 8 5 3 5 3 3 1 7 5 7 8 8 7 3 2 1 3 1 2 3 3 5 4 4 3 3 3 5 6 5 4 3 5 4 6 5 5 3 4 5 7 6 6 6 7 7 7 7 5 4 5 5 4
17 21 23 24 25 25 26 21 4 6 6 2 7 4 4 4 4 4 5 3 4 3 2 3 2 2 3 2 3 5 2 1 2 3 6 8 3 6 4 1 5 6 3 3 3 6 7 4 2 2 2 1 2 2 3 5 3 4 6 5 6 1 2 3 3 4 5 5 1 6 2 7 5 3 3 6 5 7 6 8 8 8 8 7 7 7 5 5
17 15 21 22 24 26 26 4 5 7 7 3 4 4 5 5 2 4 4 4 5 6 3 6 1 4 1 4 3 2 5 2 4 2 4 2 3 6 3 3 5 5 3 2 6 5 5 5 3 2 2 1 2 3 5 6 3 3 6 3 1 2 1 1 2 5 2 3 5 3 5 7 4 6 5 3 4 5 7 8 8 8 7 7 7 6 6 6
15 14 16 17 19 24 9 2 7 10 5 4 2 5 6 4 1 5 3 4 4 3 5 5 4 4 3 4 2 2 7 6 4 4 5 4 5 2 8 5 4 3 0 1 6 6 3 5 4 3 4 4 1 4 5 4 6 7 3 2 1 1 1 1 0 2 4 1 3 2 4 2 6 7 4 3 2 3 5 7 7 6 7 7 6 6 6 6
14 14 16 17 17 13 4 7 9 4 6 4 5 7 7 2 4 3 4 2 3 3 3 5 3 2 4 2 4 6 7 1 6 4 1 5 5 6 7 4 6 4 5 6 4 4 3 3 2 2 3 2 6 5 3 3 5 6 2 3 1 1 1 1 2 1 3 4 6 3 2 3 5 7 4 2 4 4 4 4 6 7 7 7 8 7 7 7
14 14 15 16 18 17 6 5 6 4 4 4 6 7 4 2 5 4 2 3 2 2 3 2 2 4 3 3 6 3 3 1 5 5 4 3 4 5 3 4 2 2 2 6 4 6 3 3 1 3 5 6 4 2 2 4 4 5 2 2 0 1 2 3 1 2 1 2 7 6 7 4 7 3 6 5 0 4 4 2 4 6 7 7 8 7 7 7
14 13 14 15 15 4 3 3 7 4 4 5 7 8 1 5 4 5 3 4 4 6 4 4 5 2 1 5 4 3 6 4 1 4 5 3 4 5 1 3 3 4 4 4 3 7 5 2 3 4 4 4 3 3 1 1 3 5 4 4 4 3 3 3 2 0 3 4 7 6 6 8 3 7 5 4 7 5 3 4 4 2 4 7 7 8 8 8
15 14 13 12 6 5 6 4 3 1 3 6 8 5 4 4 4 3 4 3 3 5 3 3 3 2 4 5 5 6 3 2 3 4 5 5 6 5 3 5 5 3 3 4 4 5 5 5 6 3 1 3 3 5 2 1 4 4 1 3 3 4 4 5 3 4 2 6 7 5 4 4 2 8 6 5 3 2 2 2 3 4 6 6 8 8 9 9
16 18 14 10 7 5 5 3 3 3 5 7 7 4 5 4 2 5 1 4 7 5 5 5 4 1 2 0 6 2 1 5 3 4 4 2 2 5 5 3 2 1 3 3 5 4 6 4 6 6 3 4 3 4 5 4 4 5 4 3 3 4 2 3 4 4 7 7 5 3 1 4 5 7 7 5 5 4 3 3 2 3 6 7 8 9 9 9
19 19 19 11 7 6 8 10 7 5 6 6 4 5 5 4 4 7 3 7 1 2 5 3 2 2 1 5 5 2 1 4 5 2 3 2 6 2 3 5 5 6 4 3 1 4 6 5 5 6 5 5 6 6 4 4 2 3 6 5 6 4 5 5 6 4 6 7 4 1 1 1 3 9 8 7 6 4 2 1 0 2 5 7 8 9 9 9
21 20 11 2 5 7 5 5 4 5 5 3 5 5 5 3 3 7 1 6 4 2 1 1 1 3 5 6 4 1 7 4 3 3 4 2 5 4 5 4 5 4 4 1 1 2 2 5 5 3 3 4 4 4 7 6 2 7 4 5 5 7 5 4 5 5 6 7 6 2 3 8 9 7 8 7 6 3 3 1 2 4 6 6 8 9 10 10
25 19 8 5 6 7 9 6 4 4 4 5 5 7 4 5 2 6 6 6 4 3 3 3 4 7 6 5 2 1 5 3 1 3 5 4 3 3 2 3 5 6 2 5 4 3 4 4 5 4 4 2 2 2 4 5 2 3 1 4 3 7 5 6 6 5 4 2 4 4 5 4 8 3 6 4 3 5 2 4 5 7 7 8 8 9 9 10
17 3 2 2 2 2 2 2 3 5 4 4 6 4 7 3 3 5 2 3 3 3 4 6 4 8 5 6 3 4 3 4 5 5 3 5 2 3 2 2 2 6 4 1 2 1 3 2 5 4 2 1 3 0 1 5 4 4 5 6 6 2 4 1 3 0 2 3 6 1 5 1 8 6 11 8 6 6 5 5 6 7 8 8 8 9 10 10
6 8 3 0 1 2 0 3 4 5 4 5 6 5 3 1 5 3 3 1 3 2 5 7 7 6 8 8 6 8 4 5 4 4 4 2 4 2 2 2 2 4 6 6 3 2 6 4 4 4 5 3 1 1 1 2 5 7 4 5 3 4 5 4 3 1 1 4 2 4 6 10 4 7 6 3 8 6 7 6 5 6 8 9 8 8 9 9
8 5 4 3 4 2 1 3 4 5 5 5 6 4 1 3 2 3 2 2 4 3 4 7 3 4 5 5 7 7 6 7 6 5 3 3 1 2 1 1 4 4 3 3 5 2 5 4 6 2 2 5 3 5 6 4 3 6 6 2 6 1 1 5 1 4 3 3 2 6 4 8 10 8 8 10 9 6 6 4 6 7 7 9 8 9 8 8
5 4 3 4 4 1 2 2 5 5 6 7 7 4 3 2 2 1 2 3 3 2 6 3 2 3 3 8 3 3 4 7 3 4 6 5 5 2 2 4 4 2 3 4 6 2 3 4 5 4 3 5 4 5 2 3 5 1 2 3 2 4 5 4 5 2 5 3 3 5 6 6 9 9 9 10 9 6 5 3 5 4 5 6 9 9 9 9
5 4 3 4 4 2 3 3 5 5 6 6 6 5 3 3 3 2 2 4 2 4 2 2 3 2 5 1 3 3 4 4 4 2 6 3 2 3 1 1 4 1 0 4 5 3 2 1 2 5 3 4 3 4 1 1 0 4 3 1 2 2 2 2 1 5 5 3 3 3 4 3 8 8 9 9 8 6 4 4 3 2 3 4 5 8 8 9
3 4 2 3 4 1 2 4 6 6 7 1 3 1 3 1 1 4 2 2 4 2 3 3 3 6 4 6 7 3 4 4 4 4 4 4 5 3 2 3 3 2 3 4 6 5 2 5 3 4 5 6 2 4 4 4 4 4 2 2 4 3 2 3 2 2 4 4 4 3 4 2 8 4 7 8 6 5 5 3 1 2 4 2 4 6 7 7
4 5 3 3 3 1 3 5 3 2 3 5 3 3 2 3 5 2 3 4 5 2 2 4 3 4 4 5 1 6 4 5 4 3 4 3 5 3 4 1 5 5 5 3 2 5 4 2 4 3 1 2 5 3 2 3 3 4 4 2 3 1 3 2 4 3 4 2 4 3 3 4 6 6 5 6 6 6 6 4 3 2 2 2 3 5 6 6
4 3 4 1 3 2 4 5 1 3 6 1 2 4 2 4 3 1 4 5 5 3 3 5 3 5 5 3 4 4 5 3 3 3 4 3 4 4 4 5 1 5 6 1 1 3 2 4 5 4 1 5 5 3 3 2 4 5 3 2 3 2 4 5 4 5 5 1 3 2 2 3 5 3 3 3 3 3 4 4 4 3 2 1 3 4 6 7
3 4 1 4 1 3 5 4 3 5 4 2 4 1 3 2 3 4 7 4 5 4 5 4 4 5 2 3 3 5 5 5 3 4 5 2 3 4 1 3 4 4 5 2 3 7 4 4 7 2 3 4 5 4 4 3 5 5 1 2 2 1 1 2 3 0 4 2 6 5 4 3 5 5 3 4 8 8 7 4 3 2 2 1 2 4 5 6
4 3 4 2 2 4 6 4 5 3 4 5 4 6 6 4 5 7 5 5 4 4 3 5 2 2 4 2 4 2 3 4 3 4 3 4 4 5 3 3 2 1 2 3 3 1 5 2 5 4 3 3 2 3 1 3 4 1 1 4 3 3 3 3 2 1 4 4 4 5 4 4 7 7 6 8 8 9 8 6 3 3 4 1 2 4 5 7
3 3 4 5 4 5 6 1 5 5 4 5 4 4 3 5 4 4 5 8 6 4 5 4 2 4 4 6 7 8 7 4 5 4 7 6 5 4 3 1 2 2 7 4 2 4 2 1 7 7 7 6 5 6 5 3 1 5 5 5 4 2 1 4 4 5 3 5 7 6 7 9 9 7 8 6 7 9 9 6 6 5 4 2 2 3 5 5
3 4 2 3 5 6 6 5 7 6 6 5 3 4 7 8 3 3 6 6 7 6 4 5 4 7 6 7 8 7 6 6 5 4 6 5 4 3 4 0 3 5 4 3 0 3 3 5 5 5 7 5 5 4 3 2 5 2 3 5 3 3 3 5 3 5 6 7 5 5 5 9 9 9 8 8 7 8 8 6 6 5 4 3 2 3 4 5
4 1 3 4 3 3 6 5 8 8 4 5 3 0 4 6 7 6 5 7 0 5 6 6 7 9 7 9 7 6 7 8 6 8 5 4 4 7 5 4 1 4 7 2 3 4 4 4 4 4 3 1 2 2 1 2 3 2 2 1 5 5 5 6 5 5 4 5 7 9 7 8 8 8 7 7 7 7 7 6 6 4 3 2 2 4 5 6
3 3 3 2 3 2 2 3 7 9 8 8 3 5 6 6 6 7 2 6 8 6 10 4 10 12 10 8 7 7 8 6 5 5 6 5 4 2 5 7 5 3 5 3 2 2 4 4 2 3 3 3 3 2 2 4 3 5 5 6 4 5 6 6 7 5 5 7 7 7 7 9 9 7 7 7 6 5 3 2 2 2 4 3 1 1 3 5
3 4 2 3 5 2 1 4 5 7 8 8 4 7 8 7 7 5 5 5 6 8 6 10 8 11 10 9 10 9 8 8 3 7 6 5 4 5 2 3 0 2 1 2 0 3 4 1 2 4 6 6 4 4 4 4 4 7 6 6 6 5 7 6 6 3 3 6 5 6 7 10 1 5 5 5 3 1 1 4 6 4 3 3 2 1 0 2
2 2 2 4 5 6 4 5 6 7 5 7 8 6 6 9 9 7 6 6 7 6 8 11 10 7 4 7 10 11 7 8 6 5 3 8 6 4 6 3 2 2 0 2 0 1 5 0 2 4 5 6 6 7 5 4 5 8 9 9 9 8 9 4 3 3 4 5 4 4 8 3 6 5 5 4 1 4 6 6 5 5 5 3 3 4 2 1
2 2 3 3 4 5 6 6 5 5 5 7 8 8 6 8 7 4 5 7 8 7 5 4 3 6 5 6 10 11 5 3 1 2 3 3 2 3 1 2 2 1 1 2 0 3 1 3 4 5 5 5 4 3 5 5 8 9 11 11 11 9 5 2 4 2 4 2 5 4 4 7 7 6 6 5 4 6 7 6 5 6 6 5 5 5 5 3
Wind_Direction
344 343 342 343 342 342 342 341 340 340 336 331 326 320 317 319 320 320 320 315 317 317 315 319 308 300 277 249 217 164 205 235 203 216 229 47 46 126 108 112 182 206 218 245 199 209 212 202 218 178 237 240 68 224 83 89 323 242 234 236 89 91 72 54 46 56 125 114 121 137 137 119 128 129 102 105 89 89 88 85 84 73 71 77 88 86 89 116
342 341 341 344 344 343 342 340 341 339 338 333 328 323 318 318 318 323 315 321 325 320 316 312 314 276 267 254 232 237 249 237 211 128 42 67 126 147 149 167 180 210 226 242 270 250 284 300 348 273 244 159 237 76 228 90 270 267 148 7 89 50 67 43 65 75 99 105 117 123 136 115 113 130 141 111 105 100 95 88 91 91 89 93 99 114 129 143
342 339 340 340 342 341 341 338 339 340 338 336 328 322 319 317 321 321 319 319 321 319 308 312 306 293 250 243 239 242 262 213 208 51 54 111 130 142 163 185 225 226 238 282 346 342 8 0 355 284 69 112 350 94 257 83 274 45 320 107 81 71 84 66 74 75 76 115 123 125 123 126 110 127 147 125 120 111 102 112 110 103 104 103 114 118 123 117
342 338 337 337 339 339 340 339 335 338 340 336 330 323 318 317 322 323 319 316 311 308 307 298 316 293 243 230 226 239 249 230 73 42 60 105 125 146 168 189 210 224 113 116 108 70 77 53 43 30 93 90 114 78 92 63 267 61 160 92 104 108 99 77 86 91 98 108 114 116 119 113 113 111 138 121 109 95 92 82 107 121 118 122 123 122 120 110
340 338 335 334 339 338 339 340 334 335 339 335 331 323 319 318 323 326 318 310 307 298 295 310 287 203 217 226 225 233 267 248 55 39 75 97 127 171 178 209 234 228 245 126 147 124 27 44 92 75 88 102 104 97 72 81 65 78 67 84 93 100 92 91 85 85 92 102 117 124 125 101 113 115 109 121 102 101 102 104 108 109 116 124 128 123 118 109
340 337 333 333 333 334 335 338 335 338 338 335 330 324 320 319 323 326 318 304 298 288 294 292 279 237 192 210 228 227 256 62 358 47 73 96 138 180 208 210 299 279 169 166 64 78 148 103 134 88 89 79 77 88 84 75 35 94 87 83 85 85 98 99 96 93 122 118 107 107 101 119 106 86 76 91 91 98 107 119 108 106 109 110 111 116 113 98
340 336 332 332 332 333 333 334 335 334 339 335 329 325 322 318 324 328 319 303 289 287 280 270 252 217 223 208 222 251 45 94 28 80 95 134 157 176 181 198 213 211 186 160 58 57 62 80 86 92 89 88 86 87 82 76 82 94 96 94 89 95 95 94 92 112 101 98 95 102 127 114 120 98 100 90 92 104 106 105 107 108 112 118 113 105 98 91
340 337 332 333 330 329 334 333 332 330 334 337 331 325 324 320 323 327 316 295 289 283 271 252 215 205 201 226 229 130 44 41 32 97 105 129 191 185 215 192 213 170 175 45 62 69 71 80 84 78 72 88 95 100 94 94 91 102 99 93 94 93 93 94 99 100 99 98 110 120 112 101 99 108 124 100 110 118 119 119 120 119 118 116 118 118 116 112
340 341 336 335 333 330 331 331 329 330 331 335 334 329 325 322 323 327 304 292 288 280 264 248 206 224 228 281 282 80 42 33 12 124 152 179 192 192 235 252 176 163 93 83 46 69 153 79 75 26 106 103 100 97 118 110 88 88 98 103 102 97 96 97 102 102 102 104 118 117 100 104 108 120 97 115 117 119 128 134 133 133 129 126 126 132 125 112
341 343 341 336 335 333 329 329 328 331 326 327 333 331 327 320 322 327 299 282 297 276 238 154 190 197 236 256 271 56 59 32 99 148 177 202 187 199 136 59 109 124 125 75 34 349 68 94 93 98 96 82 92 78 85 72 94 108 104 98 100 100 102 97 100 100 98 95 109 113 118 118 125 234 115 132 132 134 142 139 146 142 132 134 141 134 134 120
341 342 342 340 340 338 334 329 328 334 328 329 334 332 328 323 324 318 307 300 287 251 232 218 186 213 274 282 358 62 42 254 89 150 183 217 217 352 50 56 53 118 97 67 68 77 101 113 116 93 89 88 97 82 77 90 114 106 106 105 99 102 97 107 104 103 118 100 129 117 120 147 132 214 112 140 148 159 148 150 153 150 137 141 145 158 134 142
342 341 342 341 340 338 334 338 333 334 330 334 335 336 332 328 329 323 293 283 209 169 177 219 231 264 277 285 42 34 2 25 168 150 185 222 66 56 59 41 47 105 91 93 95 100 106 96 221 257 100 136 97 106 94 123 116 121 125 110 110 113 105 97 97 108 134 111 131 3 154 137 146 117 126 136 156 170 164 157 161 158 141 135 150 159 166 135
344 341 340 340 338 337 334 336 340 338 333 334 336 337 335 335 341 17 9 172 91 111 37 342 279 257 281 85 56 52 34 115 120 132 129 111 90 74 73 80 83 76 94 105 100 87 67 232 106 103 116 125 117 59 123 145 125 135 137 120 130 127 101 94 115 124 152 121 197 340 165 103 119 126 142 146 160 179 181 174 162 160 154 150 149 156 134 129
345 341 341 340 339 336 335 334 337 339 335 333 335 336 336 338 9 25 56 56 82 47 348 315 283 264 266 75 108 50 59 131 147 155 116 85 78 81 85 83 83 89 93 97 95 98 103 93 91 87 107 115 101 126 138 123 180 123 125 231 128 144 89 113 167 152 162 141 229 90 286 128 127 157 160 159 174 187 183 170 164 166 164 157 155 162 146 156
344 342 341 339 338 336 335 334 334 337 337 332 332 334 332 338 2 17 341 194 25 355 299 268 242 265 203 94 114 109 65 234 143 79 237 156 100 97 94 95 91 97 101 100 99 102 102 119 126 112 89 98 131 147 135 139 166 148 213 119 118 100 114 120 138 192 151 162 231 309 172 98 138 155 178 169 180 191 200 169 174 176 179 166 159 155 181 131
345 342 340 339 336 335 334 333 333 334 335 331 328 322 321 327 350 6 28 7 326 280 232 248 196 321 296 116 97 148 206 46 52 4 64 292 88 95 101 98 106 111 119 108 112 106 87 67 66 97 117 151 168 151 137 160 142 173 132 87 78 95 114 142 145 173 251 77 208 282 39 132 136 148 169 178 185 196 197 186 180 185 193 197 178 161 169 132
344 342 339 338 337 334 334 333 332 331 331 326 326 299 224 312 297 321 293 269 237 214 274 323 332 273 285 65 190 238 27 67 258 157 123 94 115 123 131 125 116 119 120 128 118 121 120 137 133 143 187 136 2 303 223 94 106 91 86 94 79 83 142 110 126 195 167 264 200 172 289 81 82 151 167 181 197 201 213 198 189 195 197 194 195 180 166 180
342 341 338 337 335 335 333 332 330 329 327 323 313 278 287 252 281 277 233 219 216 239 281 257 283 266 123 194 27 17 346 39 114 107 107 106 121 134 131 122 136 131 144 134 142 175 151 131 229 65 134 122 218 246 360 58 52 84 97 114 115 107 54 90 162 128 206 179 269 129 270 128 138 161 175 184 198 214 216 211 202 199 195 199 205 184 172 186
341 341 337 337 335 333 333 331 330 326 326 318 280 247 247 270 260 261 265 190 224 194 208 139 259 291 57 52 64 260 39 42 141 171 137 149 132 120 123 136 156 177 154 237 85 199 198 143 197 177 95 113 65 38 52 66 49 65 38 80 102 96 99 82 94 128 209 166 219 176 348 114 162 168 186 191 198 216 220 219 213 211 204 203 209 199 175 169
341 341 338 336 335 332 333 332 327 322 328 328 313 217 198 202 182 183 185 224 298 357 1 356 311 283 253 285 27 22 95 179 170 181 158 154 171 141 128 170 155 250 264 3 110 217 227 271 53 53 55 63 70 51 57 68 47 77 97 77 69 95 96 114 106 111 180 249 134 5 356 210 194 183 183 195 192 210 223 222 216 214 212 211 203 193 173 147
340 341 338 336 334 330 331 330 324 321 322 305 282 279 54 10 250 163 0 355 37 316 311 355 335 315 317 329 315 311 213 176 246 163 181 179 215 191 140 209 224 219 61 68 22 111 239 76 61 55 53 28 62 82 114 133 156 78 86 68 98 42 84 65 88 143 155 264 107 123 265 204 188 161 183 184 199 211 217 217 218 218 208 217 212 204 167 128
340 340 339 335 333 330 329 328 322 315 308 288 47 77 86 47 358 342 294 202 145 134 237 283 287 271 241 259 305 291 269 224 175 162 138 206 178 244 117 243 358 58 132 182 194 177 85 66 74 67 81 92 105 125 179 181 167 214 355 88 75 77 94 115 126 172 157 247 78 55 304 107 138 170 167 194 204 212 218 220 218 216 216 215 209 197 176 161
342 338 340 335 332 329 327 323 318 308 320 38 54 70 57 358 342 333 260 293 260 138 229 214 239 265 238 132 120 200 255 324 112 169 167 214 181 266 315 255 59 86 170 205 76 113 93 81 75 104 145 139 129 196 183 201 234 276 197 233 64 51 277 126 112 170 176 265 349 333 297 88 118 144 180 196 205 210 210 215 222 219 221 229 216 200 195 182
343 339 339 336 332 328 322 324 303 288 9 15 60 57 45 344 321 227 233 280 19 152 223 53 309 304 355 330 109 253 296 68 280 142 150 204 229 93 237 14 148 158 62 45 51 62 67 70 87 145 194 278 55 134 234 241 88 58 3 8 87 113 77 356 95 171 187 212 258 283 244 128 103 159 177 172 194 218 207 214 224 223 225 223 222 229 202 200
341 335 340 337 334 327 321 318 327 5 321 265 80 55 1 330 309 243 260 201 216 192 137 194 242 252 69 139 169 262 104 206 31 77 171 222 166 214 50 38 278 74 72 51 169 119 94 89 157 197 252 272 246 180 40 318 81 107 74 13 9 353 94 121 141 200 202 155 167 18 230 91 114 108 69 114 182 210 211 221 219 214 213 207 214 213 209 206
331 330 338 339 335 329 313 288 34 343 312 52 25 8 335 323 278 226 257 241 222 138 172 199 193 141 301 152 218 281 283 160 32 72 188 255 312 309 171 169 321 72 127 243 12 48 69 125 206 263 287 285 296 29 36 299 16 60 61 348 336 296 187 139 158 251 61 42 54 298 313 107 116 100 110 144 187 191 187 214 218 210 204 206 211 201 195 203
324 333 335 340 335 335 322 73 341 298 247 100 24 340 329 316 198 178 246 175 238 71 222 60 232 96 275 53 301 225 223 87 108 131 193 188 229 111 272 75 196 111 269 138 215 108 158 152 193 237 261 269 337 63 55 322 327 59 60 13 333 97 174 147 358 5 73 99 129 290 335 12 117 97 127 150 197 179 186 191 210 208 201 197 198 197 177 191
323 333 335 335 330 331 303 309 318 320 37 27 341 327 326 331 172 203 254 184 195 136 200 168 35 90 267 86 272 282 4 19 197 108 303 143 261 175 269 37 358 65 163 240 57 80 215 155 226 200 257 358 56 6 6 311 349 46 88 299 16 44 30 17 274 40 58 276 89 81 7 272 76 113 142 194 204 146 166 177 183 186 194 183 193 191 172 180
323 328 334 329 323 305 272 268 298 295 37 352 331 324 331 158 222 265 267 229 89 226 40 195 73 235 233 225 243 269 284 214 320 86 132 193 259 316 245 93 306 112 198 284 6 125 171 320 25 338 306 54 36 36 346 326 320 107 125 208 142 142 165 233 130 206 115 261 73 30 354 335 87 105 141 133 91 123 117 126 143 160 177 177 180 179 171 169
315 320 331 333 315 202 240 221 239 277 328 332 326 317 229 199 214 212 190 253 131 167 192 48 238 120 221 261 204 165 235 137 32 127 172 229 147 207 46 321 226 182 184 192 284 69 76 92 332 269 24 44 94 80 38 295 43 115 183 169 163 174 174 177 230 229 207 74 64 31 5 23 59 55 45 8 42 15 5 113 107 114 161 168 164 171 167 172
316 316 323 329 312 345 309 250 104 81 327 322 317 292 226 216 248 225 203 53 222 82 180 213 153 190 226 238 205 142 238 231 167 206 178 196 184 219 169 187 228 214 180 156 151 142 166 163 201 112 137 124 154 124 134 139 140 208 188 265 51 239 167 203 171 215 69 75 54 23 347 62 343 71 56 54 125 98 343 35 102 144 150 169 167 174 167 167
313 310 310 311 272 304 253 19 24 312 320 322 305 225 215 195 197 225 152 116 228 130 220 131 138 246 242 203 282 212 190 163 171 210 246 188 200 209 191 284 161 210 108 66 108 181 181 148 92 137 167 228 206 212 117 176 212 243 247 265 254 81 85 75 83 72 43 42 44 20 310 251 49 48 31 24 30 63 48 353 64 164 139 150 172 173 172 168
313 309 307 272 232 216 239 275 311 311 310 289 270 221 219 215 211 200 162 184 123 335 140 301 74 224 286 252 202 152 223 244 109 208 282 179 275 209 62 297 358 313 4 68 317 149 96 110 166 130 178 211 271 282 140 179 70 352 22 350 33 28 47 39 62 54 95 93 75 275 329 319 126 70 21 32 34 28 8 350 310 145 147 157 156 163 167 173
311 312 308 250 227 237 275 276 278 289 284 249 246 199 246 219 196 15 172 182 73 150 59 166 232 209 223 247 100 268 201 132 269 125 228 219 232 245 168 181 243 231 251 309 316 46 149 147 133 211 116 139 238 359 6 13 9 41 340 346 32 38 355 48 23 52 47 53 72 178 240 36 23 25 31 31 22 20 34 33 116 160 148 153 158 162 163 173
310 297 261 256 232 240 240 255 262 248 249 254 217 221 189 209 183 172 192 172 152 172 169 142 227 209 173 218 124 145 332 147 129 247 219 247 221 240 283 134 176 276 326 258 95 259 23 75 91 50 38 246 228 59 308 313 205 57 348 275 23 43 335 40 38 20 37 81 96 27 47 42 63 12 59 63 77 84 75 91 137 154 154 153 158 164 169 176
302 335 278 219 269 90 216 198 215 213 259 234 216 212 218 228 204 188 133 32 111 216 138 174 217 211 197 174 147 218 107 288 119 245 205 249 22 282 70 272 213 203 242 282 76 244 185 122 95 128 156 305 43 187 191 314 326 44 241 39 44 330 306 88 230 317 322 263 64 302 56 255 168 99 45 18 84 87 103 103 137 148 152 161 166 169 179 182
328 312 209 54 151 47 197 202 196 234 252 240 227 217 264 94 3 116 86 224 52 355 204 212 167 244 190 188 181 182 142 222 197 253 195 150 199 200 240 171 309 208 250 320 191 270 314 100 125 179 165 104 341 345 40 307 326 286 25 58 67 310 311 329 27 154 155 48 69 11 41 51 7 60 99 342 48 34 70 95 96 143 158 176 170 178 181 183
317 302 284 290 25 15 185 192 228 247 250 221 224 282 11 252 90 21 63 131 179 215 230 232 93 289 205 197 188 177 150 244 127 215 263 191 61 39 112 276 132 267 317 264 290 120 264 208 139 171 86 109 170 216 160 123 315 340 34 60 271 77 174 77 286 36 25 34 26 24 85 45 20 42 13 27 29 36 48 76 132 155 169 182 177 179 179 174
277 283 201 97 19 45 166 205 250 250 222 214 223 222 180 329 77 294 56 335 320 246 226 200 308 165 283 214 109 126 157 234 138 228 238 143 232 120 38 336 139 164 264 246 232 150 212 290 128 156 197 137 204 242 290 119 126 76 215 185 70 269 18 343 44 334 356 32 9 9 4 54 38 30 10 20 18 21 23 16 52 89 153 175 182 183 179 176
303 261 171 67 34 86 139 227 259 230 221 221 218 220 57 215 166 198 211 270 202 239 224 187 199 168 206 13 239 188 130 272 215 137 250 97 251 125 155 158 340 216 287 232 266 192 209 285 294 126 142 192 211 223 293 306 68 162 215 57 153 37 25 318 170 3 9 6 9 351 1 40 61 27 16 12 15 1 15 16 19 99 131 164 172 180 186 177
279 277 88 53 32 70 211 246 235 210 220 166 331 360 175 228 240 187 213 223 271 296 308 264 197 206 175 174 187 167 174 199 203 214 231 146 242 167 93 347 323 271 163 190 224 197 209 201 261 145 186 224 88 63 11 314 321 324 342 8 354 321 247 311 69 194 345 338 5 334 350 36 70 43 15 2 4 357 359 23 328 10 91 173 155 180 187 179
273 240 115 61 34 176 263 238 203 310 274 224 214 191 159 23 238 221 224 172 247 248 167 277 275 280 185 218 72 163 223 190 182 230 189 271 127 322 93 210 273 258 233 183 230 136 323 247 267 252 311 48 51 51 355 296 274 300 310 8 316 19 307 345 343 24 293 51 311 6 329 30 63 34 21 11 359 360 3 356 6 344 76 121 168 178 179 178
226 277 73 82 17 271 246 250 168 219 229 39 75 225 193 212 263 111 241 188 222 203 226 229 221 222 220 247 189 195 209 196 205 238 120 184 101 43 29 342 270 208 246 150 164 133 296 235 222 230 157 125 116 94 118 164 220 202 187 267 236 325 2 343 353 344 324 309 286 328 315 0 64 27 357 350 3 360 14 10 10 35 57 134 181 176 174 172
303 293 187 133 255 277 237 229 218 223 208 132 230 217 165 288 241 202 225 197 233 181 227 220 199 244 328 216 219 213 175 221 172 205 172 179 140 75 66 360 208 212 230 72 280 139 218 179 276 237 230 181 174 169 163 158 224 256 296 140 324 348 308 358 313 244 291 30 337 315 329 347 43 355 337 349 10 16 33 26 356 18 99 141 162 162 166 168
296 241 243 209 205 210 231 250 268 241 207 210 202 217 193 212 218 253 276 228 199 256 232 217 255 148 204 192 233 231 185 279 181 180 358 188 104 145 98 19 229 263 201 34 15 110 251 179 214 249 248 263 253 252 75 175 207 157 176 144 179 233 160 231 291 319 311 73 314 306 313 345 348 333 344 8 1 0 23 24 11 47 40 6 152 156 167 172
212 245 156 189 186 205 251 327 286 271 215 193 211 206 206 225 173 209 231 244 239 237 251 319 201 233 211 194 211 211 199 194 254 163 206 196 159 144 70 76 45 60 85 79 172 199 242 252 243 266 286 288 329 14 80 290 176 253 177 199 160 233 253 286 289 286 329 340 300 324 330 331 322 332 342 4 15 360 4 13 16 22 31 42 145 168 174 178
344 251 198 191 161 221 230 207 226 237 245 207 230 178 205 213 208 182 184 239 188 230 220 234 215 198 199 213 217 214 205 189 196 247 213 224 139 99 126 359 129 83 159 155 54 204 219 231 205 273 266 314 2 11 69 284 262 253 195 179 177 192 214 266 299 327 355 303 294 63 342 314 320 324 342 355 11 355 1 6 5 13 12 16 100 157 168 182
231 204 318 11 297 181 202 215 217 221 219 206 221 181 219 203 195 202 160 245 211 200 232 183 231 227 217 205 207 221 201 217 194 213 179 216 207 171 176 165 112 126 199 134 153 249 256 246 117 234 239 360 22 44 37 230 282 328 281 206 223 204 211 245 280 304 303 302 307 342 335 305 311 324 333 7 13 346 349 359 357 348 356 73 131 160 179 188
297 345 300 39 235 288 255 16 207 214 207 218 213 213 221 215 206 203 238 183 210 209 217 226 211 212 219 216 218 216 204 211 211 207 220 190 214 214 214 155 133 130 170 124 134 14 264 249 115 239 212 186 170 187 166 244 221 237 238 241 257 233 239 253 283 293 274 280 293 304 304 293 294 308 335 17 358 341 358 358 354 26 54 49 110 160 184 191
193 254 196 189 277 287 212 207 207 207 216 203 234 220 230 222 223 196 198 218 207 213 191 234 225 215 214 217 220 231 208 228 235 222 195 229 168 222 266 317 130 143 108 119 137 137 267 166 127 193 233 206 179 179 200 226 247 255 245 248 247 253 266 270 279 265 276 260 272 282 284 283 349 38 342 1 343 314 100 68 60 52 46 48 30 53 156 238
353 6 357 303 228 209 184 203 198 204 211 187 221 205 220 227 232 223 218 205 227 220 201 226 230 218 210 228 227 236 238 235 231 266 193 208 256 167 251 152 224 198 107 116 124 120 241 312 206 215 253 230 183 217 201 225 245 257 265 259 258 250 272 246 242 174 262 317 303 273 262 276 63 350 344 47 340 88 77 64 56 58 62 61 32 22 20 285
303 262 264 285 265 152 209 180 212 204 223 210 211 203 207 220 223 201 237 222 229 255 282 290 282 245 187 214 227 234 250 242 281 52 90 75 64 94 11 111 211 260 190 109 95 251 260 225 214 223 238 259 143 221 227 229 248 249 243 249 262 278 289 276 244 185 252 292 276 262 339 23 344 342 332 51 88 85 72 55 55 48 40 39 40 25 12 7